星链-34368 (STARLINK-34368)

导读

STARLINK-34368是美国太空探索技术公司(SpaceX)星链(Starlink)互联网星座的成员,于2025年6月8日发射升空。该卫星运行于近地轨道,属于星链项目扩容的一部分,旨在为全球尤其是偏远地区提供高速、低延迟的宽带互联网接入服务,进一步完善了星链星座的全球覆盖能力,推动太空互联网基础设施建设。

Basic Information
目录编号:
64311
目录名称:
STARLINK-34368
国际标识:
2025-123W
轨道中心:
EARTH
卫星名称:
星链-34368
卫星全名:
星链-34368 (STARLINK-34368)
卫星状态:
在轨 (已飞行454 天)
发射日期:
2025-06-08 UTC
国别 :
美国 (US)
星等 :
--
Orbit Information
数据来源 国际轨道数据
星历时间: 2026-09-05T14:00:02+0800
6小时前
查看轨道信息
半长轴: 6855.19km
偏心率: 0.0003223
轨道倾角: 70.000°
近地点辐角 273.807°
升交点赤经 101.332°
平近点角 120.660°
近地点: 474.843km
远地点: 479.263km
周期: 94.143分钟
每日圈数: 15.295848
Detailed Information
固有亮度:
5
最大亮度:
2.5
卫星平台:
Starlink V1.0
覆盖范围:
全球
运营商:
太空探索技术公司
运营商所在国:
美国
制造商(研发单位):
太空探索技术公司
制造商所在国:
美国
使用方式:
暂无
Satellite Introduction
Starlink 计划是 SpaceX 推出的全球卫星互联网项目,通过发射低轨道卫星,为全球尤其是偏远地区提供高速、低延迟的互联网服务。自 2019 年起,Starlink 已部署数千颗卫星,旨在缩小全球数字鸿沟,推动互联网普及。该项目还为军事、航空等行业提供通信支持,带来广泛经济效益。
2D Orbit Map
3D Orbit Map
Orbit Altitude Analysis Chart
Orbit Inclination Analysis Chart
Orbit Comprehensive Analysis Chart
View Comprehensive Chart
Conjunction Data List
Event ID Objects TCA Miss Dist (km) Collision Risk Probability Collision Risk Index (CRI) Action
CDM_260906-010005-718806-431121
OBJECT Y (57188)
2026-09-06T
01:00:24+0000
1.037 km
极远距离
2.369169E-5 中风险 0.62
CDM_260831-133804-376706-431121
2026-08-31T
13:38:13+0000
1.393 km
极远距离
8.695443E-6 低风险 0.54
CDM_260903-164205-920006-431121
2026-09-03T
16:42:26+0000
1.826 km
极远距离
2.306617E-6 低风险 0.42
CDM_260907-224705-612906-431121
2026-09-07T
22:47:39+0000
1.832 km
极远距离
2.134996E-6 低风险 0.42
CDM_260906-043604-946706-431121
AVUM R/B (49467)
2026-09-06T
04:36:21+0000
2.529 km
极远距离
1.702139E-6 低风险 0.4
CDM_260907-040405-821906-431121
2026-09-07T
04:04:12+0000
2.538 km
极远距离
1.540263E-6 低风险 0.39
CDM_260906-023503-886306-431121
2026-09-06T
02:35:42+0000
2.707 km
极远距离
1.507716E-6 低风险 0.39
CDM_260906-115805-320806-431121
2026-09-06T
11:58:01+0000
2.746 km
极远距离
1.504874E-6 低风险 0.39
CDM_260830-171706-431106-559721
2026-08-30T
17:17:12+0000
2.909 km
极远距离
1.40358E-6 低风险 0.38
CDM_260905-073606-431106-645921
2026-09-05T
07:36:25+0000
2.553 km
极远距离
1.340967E-6 低风险 0.38